East Quogue, NY

4:29 AM EST on January 22, 2017 (GMT -0500)
The Gabreski

Weather History for KFOK - November, 2012

Change the Weather History Date:

Tuesday, November 13, 2012

  Actual Average Record
Temperature  
Mean Temperature 53 °F -  
Max Temperature 62 °F 50 °F 64 °F (2010)
Min Temperature 44 °F 31 °F 14 °F (2001)
Degree Days  
Heating Degree Days 12    
Growing Degree Days 3 (Base 50)    
Moisture  
Dew Point 49 °F    
Average Humidity 82    
Maximum Humidity 94    
Minimum Humidity 53    
Precipitation  
Precipitation 0.13 in - - ()
Sea Level Pressure  
Sea Level Pressure 30.26 in    
Wind  
Wind Speed 11 mph (NW)    
Max Wind Speed 20 mph    
Max Gust Speed 29 mph    
Visibility 9 miles    
Events Rain    
Averages and records for this station are not official NWS values.
T = Trace of Precipitation, MM = Missing Value Source: NWS Daily Summary

Daily Weather History Graph

Daily Weather History Graph

Search for Another Location

Airport or City:

Trip Planner

Search our weather history database for the weather conditions in past years. The results will help you decide how hot, cold, wet, or windy it might be!

Date:

Astronomy

Nov. 13, 2012 Rise Set
Actual Time 6:35 AM EST 4:33 PM EST
Civil Twilight 6:06 AM EST 5:02 PM EST
Nautical Twilight 5:33 AM EST 5:35 PM EST
Astronomical Twilight 5:01 AM EST 6:08 PM EST
Moon 6:10 AM EST (11/13) 4:23 PM EST (11/13)
Length of Visible Light 10h 56m
Length of Day
9h 57m
Waning Crescent, 0% of the Moon is Illuminated
Nov 13
Waning Crescent
Nov 13
New
Nov 20
First Quarter
Nov 28
Full
Dec 6
Last Quarter

Hourly Weather History & Observations

Time (EST) Temp. Windchill Dew Point Humidity Pressure Visibility Wind Dir Wind Speed Gust Speed Precip Events Conditions
12:46 AM 62.6 °F - 60.8 °F 94% 30.22 in 9.0 mi South 11.5 mph 18.4 mph N/A   Overcast
12:53 AM 62.1 °F - 60.1 °F 93% 30.22 in 9.0 mi South 9.2 mph 19.6 mph N/A   Overcast
1:35 AM 62.6 °F - 59.0 °F 88% 30.21 in 10.0 mi South 12.7 mph 20.7 mph N/A   Overcast
1:53 AM 62.1 °F - 57.9 °F 86% 30.21 in 10.0 mi South 11.5 mph 18.4 mph N/A   Overcast
2:27 AM 60.8 °F - 57.2 °F 88% 30.20 in 10.0 mi South 11.5 mph 19.6 mph N/A   Mostly Cloudy
2:53 AM 61.0 °F - 57.9 °F 90% 30.19 in 10.0 mi South 11.5 mph 19.6 mph N/A   Partly Cloudy
3:29 AM 60.8 °F - 57.2 °F 88% 30.18 in 10.0 mi South 9.2 mph 17.3 mph N/A   Mostly Cloudy
3:53 AM 62.1 °F - 59.0 °F 90% 30.18 in 10.0 mi South 10.4 mph 17.3 mph N/A   Overcast
4:40 AM 60.8 °F - 59.0 °F 94% 30.17 in 9.0 mi South 9.2 mph - N/A   Overcast
4:53 AM 61.0 °F - 59.0 °F 93% 30.17 in 9.0 mi South 10.4 mph 16.1 mph N/A   Overcast
5:10 AM 62.6 °F - 59.0 °F 88% 30.17 in 10.0 mi South 10.4 mph 17.3 mph N/A   Overcast
5:26 AM 62.6 °F - 59.0 °F 88% 30.17 in 10.0 mi South 6.9 mph 16.1 mph N/A   Overcast
5:53 AM 62.1 °F - 59.0 °F 90% 30.16 in 10.0 mi South 9.2 mph 16.1 mph N/A   Overcast
6:48 AM 62.6 °F - 59.0 °F 88% 30.18 in 10.0 mi SW 11.5 mph 19.6 mph N/A   Overcast
7:01 AM 60.8 °F - 57.2 °F 88% 30.18 in 10.0 mi West 10.4 mph 20.7 mph N/A   Overcast
7:15 AM 60.8 °F - 57.2 °F 88% 30.19 in 9.0 mi WNW 11.5 mph - 0.00 in Rain Light Rain
7:29 AM 57.2 °F - 53.6 °F 88% 30.20 in 7.0 mi NW 11.5 mph - 0.01 in Rain Light Rain
7:53 AM 55.9 °F - 52.0 °F 87% 30.21 in 9.0 mi NW 11.5 mph - 0.01 in Rain Light Rain
8:10 AM 55.4 °F - 51.8 °F 88% 30.22 in 10.0 mi NW 10.4 mph - 0.01 in   Overcast
8:41 AM 53.6 °F - 48.2 °F 82% 30.25 in 2.0 mi NW 18.4 mph 25.3 mph 0.01 in Rain Light Rain
8:48 AM 51.8 °F - 48.2 °F 88% 30.25 in 2.0 mi NNW 16.1 mph 24.2 mph 0.02 in Rain Light Rain
8:53 AM 52.0 °F - 48.9 °F 89% 30.25 in 2.0 mi NNW 18.4 mph 26.5 mph 0.02 in Rain Light Rain
8:59 AM 51.8 °F - 48.2 °F 88% 30.25 in 10.0 mi NNW 19.6 mph 28.8 mph 0.00 in Rain Light Rain
9:04 AM 51.8 °F - 48.2 °F 88% 30.25 in 10.0 mi NNW 16.1 mph 28.8 mph 0.00 in   Overcast
9:12 AM 51.8 °F - 48.2 °F 88% 30.26 in 10.0 mi NNW 15.0 mph 23.0 mph 0.00 in   Overcast
9:53 AM 53.1 °F - 46.0 °F 77% 30.27 in 10.0 mi NNW 13.8 mph 19.6 mph 0.00 in   Overcast
10:53 AM 52.0 °F - 44.1 °F 74% 30.26 in 10.0 mi NNW 9.2 mph - N/A   Overcast
11:53 AM 51.1 °F - 43.0 °F 74% 30.26 in 10.0 mi NNW 12.7 mph - N/A   Overcast
12:53 PM 48.9 °F - 43.0 °F 80% 30.26 in 9.0 mi NNW 11.5 mph - 0.02 in Rain Light Rain
1:53 PM 46.0 °F 40.6 °F 43.0 °F 89% 30.30 in 4.0 mi NNW 11.5 mph - 0.02 in Rain Light Rain
2:53 PM 45.0 °F 40.1 °F 41.0 °F 86% 30.30 in 10.0 mi North 9.2 mph - 0.05 in Rain Light Rain
3:53 PM 44.1 °F 37.7 °F 39.0 °F 82% 30.32 in 10.0 mi North 12.7 mph 18.4 mph 0.01 in Rain Light Rain
4:53 PM 44.1 °F 40.8 °F 39.0 °F 82% 30.34 in 10.0 mi North 5.8 mph - 0.00 in Rain Light Rain
5:53 PM 45.0 °F 41.2 °F 37.0 °F 74% 30.35 in 10.0 mi North 6.9 mph - 0.00 in   Overcast
6:53 PM 45.0 °F 41.8 °F 35.1 °F 68% 30.37 in 10.0 mi North 5.8 mph - N/A   Overcast
7:53 PM 46.0 °F 41.0 °F 32.0 °F 58% 30.39 in 10.0 mi NNW 10.4 mph - N/A   Overcast
8:53 PM 45.0 °F 38.9 °F 30.0 °F 56% 30.41 in 10.0 mi North 12.7 mph 19.6 mph N/A   Overcast
9:53 PM 45.0 °F 39.3 °F 30.0 °F 56% 30.42 in 10.0 mi North 11.5 mph - N/A   Overcast
10:53 PM 45.0 °F 38.5 °F 30.0 °F 56% 30.43 in 10.0 mi North 13.8 mph 20.7 mph N/A   Overcast
11:53 PM 44.1 °F 38.1 °F 28.0 °F 53% 30.44 in 10.0 mi North 11.5 mph 23.0 mph N/A   Overcast